Wetterdaten: Woche 02.01.06 - 08.01.06 (KW1)
Datum Zeit Temperatur Luftfeuchte Luftdruck Niederschlag Windrichtung Wind
02.01.2006 00:00 -0,5 C 100 % 1009 hPa 0,0 l/m N 0,0 km/h (0 Bft)
02.01.2006 01:00 -0,5 C 100 % 1010 hPa 0,0 l/m N 0,0 km/h (0 Bft)
02.01.2006 02:00 -0,3 C 100 % 1010 hPa 0,0 l/m N 0,0 km/h (0 Bft)
02.01.2006 03:00 -0,2 C 100 % 1011 hPa 0,0 l/m N 0,0 km/h (0 Bft)
02.01.2006 04:00 -0,2 C 100 % 1011 hPa 0,0 l/m N 0,0 km/h (0 Bft)
02.01.2006 05:00 -0,4 C 100 % 1011 hPa 0,0 l/m N 0,0 km/h (0 Bft)
02.01.2006 06:00 -0,6 C 100 % 1012 hPa 0,0 l/m N 0,0 km/h (0 Bft)
02.01.2006 07:00 -0,7 C 100 % 1013 hPa 0,0 l/m N 0,0 km/h (0 Bft)
02.01.2006 08:00 -0,5 C 100 % 1014 hPa 0,0 l/m N 0,0 km/h (0 Bft)
02.01.2006 09:00 -0,1 C 100 % 1015 hPa 0,0 l/m N 0,0 km/h (0 Bft)
02.01.2006 10:00 0,3 C 100 % 1015 hPa 0,0 l/m N 0,0 km/h (0 Bft)
02.01.2006 11:00 0,9 C 100 % 1016 hPa 0,0 l/m N-NW 3,1 km/h (1 Bft)
02.01.2006 12:00 1,3 C 99 % 1016 hPa 0,0 l/m N-NW 5,0 km/h (1 Bft)
02.01.2006 13:00 1,7 C 91 % 1016 hPa 1,0 l/m N-NW 6,9 km/h (2 Bft)
02.01.2006 14:00 1,8 C 79 % 1017 hPa 0,0 l/m N 9,1 km/h (2 Bft)
02.01.2006 15:00 1,6 C 79 % 1018 hPa 0,0 l/m N 7,8 km/h (2 Bft)
02.01.2006 16:00 1,2 C 81 % 1018 hPa 0,0 l/m N-NW 6,1 km/h (2 Bft)
02.01.2006 17:00 0,9 C 84 % 1019 hPa 0,0 l/m N-NW 2,1 km/h (1 Bft)
02.01.2006 18:00 0,7 C 85 % 1020 hPa 0,0 l/m NW 1,5 km/h (1 Bft)
02.01.2006 19:00 0,6 C 85 % 1020 hPa 0,0 l/m NW 1,0 km/h (0 Bft)
02.01.2006 20:00 0,6 C 84 % 1020 hPa 0,0 l/m NW 2,2 km/h (1 Bft)
02.01.2006 21:00 0,5 C 84 % 1021 hPa 0,0 l/m NW 0,6 km/h (0 Bft)
02.01.2006 22:00 0,4 C 85 % 1021 hPa 0,0 l/m N 0,3 km/h (0 Bft)
02.01.2006 23:00 0,3 C 86 % 1022 hPa 0,0 l/m W-NW 2,2 km/h (1 Bft)
03.01.2006 00:00 0,2 C 84 % 1022 hPa 0,0 l/m N 0,0 km/h (0 Bft)
03.01.2006 01:00 -0,1 C 85 % 1022 hPa 0,0 l/m NW 0,4 km/h (0 Bft)
03.01.2006 02:00 -0,2 C 85 % 1023 hPa 0,0 l/m NW 0,9 km/h (0 Bft)
03.01.2006 03:00 -0,4 C 86 % 1023 hPa 0,0 l/m N 0,0 km/h (0 Bft)
03.01.2006 04:00 -0,5 C 88 % 1023 hPa 0,0 l/m N 0,0 km/h (0 Bft)
03.01.2006 05:00 -0,9 C 89 % 1023 hPa 0,0 l/m N 0,0 km/h (0 Bft)
03.01.2006 06:00 -1,3 C 90 % 1024 hPa 0,0 l/m N 0,0 km/h (0 Bft)
03.01.2006 07:00 -1,6 C 92 % 1024 hPa 0,0 l/m N 0,0 km/h (0 Bft)
03.01.2006 08:00 -1,6 C 93 % 1024 hPa 0,0 l/m N 0,0 km/h (0 Bft)
03.01.2006 09:00 -1,1 C 95 % 1025 hPa 0,0 l/m NW 1,4 km/h (1 Bft)
03.01.2006 10:00 -0,3 C 96 % 1026 hPa 0,0 l/m N 0,0 km/h (0 Bft)
03.01.2006 11:00 0,3 C 95 % 1026 hPa 0,0 l/m N 0,0 km/h (0 Bft)
03.01.2006 12:00 1,0 C 93 % 1025 hPa 0,0 l/m N 0,0 km/h (0 Bft)
03.01.2006 13:00 1,3 C 90 % 1025 hPa 0,0 l/m N-NW 0,9 km/h (0 Bft)
03.01.2006 14:00 1,3 C 88 % 1026 hPa 0,0 l/m O-NO 3,4 km/h (1 Bft)
03.01.2006 15:00 1,0 C 90 % 1026 hPa 0,0 l/m N 7,2 km/h (2 Bft)
03.01.2006 16:00 0,7 C 91 % 1026 hPa 0,0 l/m N 1,3 km/h (1 Bft)
03.01.2006 17:00 0,2 C 91 % 1026 hPa 0,0 l/m N 0,0 km/h (0 Bft)
03.01.2006 18:00 0,0 C 92 % 1027 hPa 0,0 l/m N 0,0 km/h (0 Bft)
03.01.2006 19:00 -0,2 C 94 % 1027 hPa 0,0 l/m N 0,0 km/h (0 Bft)
03.01.2006 20:00 -0,5 C 95 % 1027 hPa 0,0 l/m N 0,0 km/h (0 Bft)
03.01.2006 21:00 -0,5 C 95 % 1027 hPa 0,0 l/m N 0,1 km/h (0 Bft)
03.01.2006 22:00 -0,6 C 97 % 1026 hPa 0,0 l/m N-NW 0,3 km/h (0 Bft)
03.01.2006 23:00 -1,0 C 97 % 1026 hPa 0,0 l/m N 0,1 km/h (0 Bft)
04.01.2006 00:00 -1,2 C 98 % 1026 hPa 0,0 l/m N 0,0 km/h (0 Bft)
04.01.2006 01:00 -1,6 C 98 % 1026 hPa 0,0 l/m N 0,0 km/h (0 Bft)
04.01.2006 02:00 -1,3 C 99 % 1026 hPa 0,0 l/m N 0,0 km/h (0 Bft)
04.01.2006 03:00 -0,9 C 99 % 1026 hPa 0,0 l/m N 0,0 km/h (0 Bft)
04.01.2006 04:00 -1,0 C 95 % 1025 hPa 0,0 l/m N 0,0 km/h (0 Bft)
04.01.2006 05:00 -1,0 C 93 % 1025 hPa 0,0 l/m N 0,0 km/h (0 Bft)
04.01.2006 06:00 -0,9 C 92 % 1025 hPa 0,0 l/m N 0,0 km/h (0 Bft)
04.01.2006 07:00 -1,6 C 90 % 1025 hPa 0,0 l/m N 0,0 km/h (0 Bft)
04.01.2006 08:00 -1,7 C 91 % 1024 hPa 0,0 l/m N 0,0 km/h (0 Bft)
04.01.2006 09:00 -1,3 C 90 % 1025 hPa 0,0 l/m N 0,0 km/h (0 Bft)
04.01.2006 10:00 -0,7 C 85 % 1025 hPa 0,0 l/m N 0,0 km/h (0 Bft)
04.01.2006 11:00 -0,2 C 80 % 1024 hPa 0,0 l/m N 0,0 km/h (0 Bft)
04.01.2006 12:00 -0,2 C 80 % 1024 hPa 0,0 l/m N 0,0 km/h (0 Bft)
04.01.2006 13:00 -0,5 C 80 % 1023 hPa 0,0 l/m N 0,1 km/h (0 Bft)
04.01.2006 14:00 -0,3 C 78 % 1022 hPa 0,0 l/m NO 0,7 km/h (0 Bft)
04.01.2006 15:00 -0,1 C 77 % 1022 hPa 0,0 l/m N 0,0 km/h (0 Bft)
04.01.2006 16:00 -0,4 C 77 % 1022 hPa 0,0 l/m N 0,0 km/h (0 Bft)
04.01.2006 17:00 -0,6 C 77 % 1021 hPa 0,0 l/m N 0,0 km/h (0 Bft)
04.01.2006 18:00 -0,6 C 72 % 1021 hPa 0,0 l/m N 0,0 km/h (0 Bft)
04.01.2006 19:00 -0,8 C 70 % 1021 hPa 0,0 l/m N 0,0 km/h (0 Bft)
04.01.2006 20:00 -0,9 C 70 % 1021 hPa 0,0 l/m N 0,0 km/h (0 Bft)
04.01.2006 21:00 -1,0 C 75 % 1020 hPa 0,0 l/m N 0,0 km/h (0 Bft)
04.01.2006 22:00 -1,0 C 80 % 1019 hPa 0,0 l/m N 0,0 km/h (0 Bft)
04.01.2006 23:00 -1,1 C 81 % 1019 hPa 0,0 l/m N 0,0 km/h (0 Bft)
05.01.2006 00:00 -1,0 C 80 % 1018 hPa 0,0 l/m N 0,0 km/h (0 Bft)
05.01.2006 01:00 -1,0 C 79 % 1017 hPa 0,0 l/m N 0,0 km/h (0 Bft)
05.01.2006 02:00 -1,0 C 79 % 1017 hPa 0,0 l/m NO 9,3 km/h (2 Bft)
05.01.2006 03:00 -1,0 C 73 % 1017 hPa 0,0 l/m NO 18,6 km/h (3 Bft)
05.01.2006 04:00 -1,1 C 73 % 1017 hPa 0,0 l/m NO 20,7 km/h (4 Bft)
05.01.2006 05:00 -1,3 C 73 % 1016 hPa 0,0 l/m NO 19,0 km/h (3 Bft)
05.01.2006 06:00 -1,4 C 75 % 1016 hPa 0,0 l/m NO 17,7 km/h (3 Bft)
05.01.2006 07:00 -1,4 C 76 % 1016 hPa 0,0 l/m NO 15,3 km/h (3 Bft)
05.01.2006 08:00 -1,4 C 78 % 1016 hPa 0,0 l/m NO 12,3 km/h (3 Bft)
05.01.2006 09:00 -1,3 C 78 % 1016 hPa 0,0 l/m NO 11,8 km/h (2 Bft)
05.01.2006 10:00 -0,8 C 75 % 1016 hPa 0,0 l/m NO 12,2 km/h (2 Bft)
05.01.2006 11:00 -0,4 C 71 % 1016 hPa 0,0 l/m O-NO 12,3 km/h (3 Bft)
05.01.2006 12:00 -0,3 C 70 % 1015 hPa 0,0 l/m O-NO 11,0 km/h (2 Bft)
05.01.2006 13:00 -0,1 C 65 % 1015 hPa 0,0 l/m N 10,0 km/h (2 Bft)
05.01.2006 14:00 0,5 C 63 % 1014 hPa 0,0 l/m N-NO 9,6 km/h (2 Bft)
05.01.2006 15:00 0,1 C 64 % 1014 hPa 0,0 l/m NO 9,4 km/h (2 Bft)
05.01.2006 16:00 -1,2 C 67 % 1015 hPa 0,0 l/m NO 7,5 km/h (2 Bft)
05.01.2006 17:00 -2,3 C 73 % 1015 hPa 0,0 l/m NO 3,7 km/h (1 Bft)
05.01.2006 18:00 -2,6 C 77 % 1015 hPa 0,0 l/m NO 7,1 km/h (2 Bft)
05.01.2006 19:00 -2,5 C 79 % 1015 hPa 0,0 l/m NO 7,6 km/h (2 Bft)
05.01.2006 20:00 -2,5 C 79 % 1015 hPa 0,0 l/m NO 8,8 km/h (2 Bft)
05.01.2006 21:00 -2,6 C 80 % 1015 hPa 0,0 l/m NO 10,6 km/h (2 Bft)
05.01.2006 22:00 -2,6 C 81 % 1015 hPa 0,0 l/m NO 10,9 km/h (2 Bft)
05.01.2006 23:00 -2,6 C 81 % 1015 hPa 0,0 l/m NO 10,0 km/h (2 Bft)
06.01.2006 00:00 -2,8 C 82 % 1015 hPa 0,0 l/m NO 10,0 km/h (2 Bft)
06.01.2006 01:00 -2,8 C 83 % 1015 hPa 0,0 l/m NO 9,5 km/h (2 Bft)
06.01.2006 02:00 -2,9 C 84 % 1016 hPa 0,0 l/m NO 8,9 km/h (2 Bft)
06.01.2006 03:00 -3,2 C 86 % 1016 hPa 0,0 l/m NO 10,4 km/h (2 Bft)
06.01.2006 04:00 -3,2 C 87 % 1016 hPa 0,0 l/m NO 8,2 km/h (2 Bft)
06.01.2006 05:00 -3,1 C 88 % 1016 hPa 0,0 l/m NO 11,2 km/h (2 Bft)
06.01.2006 06:00 -3,3 C 89 % 1016 hPa 0,0 l/m NO 11,3 km/h (2 Bft)
06.01.2006 07:00 -3,8 C 88 % 1016 hPa 0,0 l/m NO 12,4 km/h (3 Bft)
06.01.2006 08:00 -4,0 C 90 % 1017 hPa 0,0 l/m NO 10,8 km/h (2 Bft)
06.01.2006 09:00 -3,9 C 90 % 1017 hPa 0,0 l/m NO 11,6 km/h (2 Bft)
06.01.2006 10:00 -3,7 C 89 % 1018 hPa 0,0 l/m NO 8,3 km/h (2 Bft)
06.01.2006 11:00 -3,3 C 85 % 1018 hPa 0,0 l/m NO 11,2 km/h (2 Bft)
06.01.2006 12:00 -3,0 C 82 % 1018 hPa 0,0 l/m NO 12,5 km/h (3 Bft)
06.01.2006 13:00 -2,8 C 81 % 1018 hPa 0,0 l/m NO 11,2 km/h (2 Bft)
06.01.2006 14:00 -2,8 C 80 % 1018 hPa 0,0 l/m NO 10,9 km/h (2 Bft)
06.01.2006 15:00 -2,8 C 82 % 1019 hPa 0,0 l/m NO 4,3 km/h (1 Bft)
06.01.2006 16:00 -3,1 C 85 % 1019 hPa 0,0 l/m NO 5,8 km/h (2 Bft)
06.01.2006 17:00 -3,3 C 87 % 1019 hPa 0,0 l/m NO 8,2 km/h (2 Bft)
06.01.2006 18:00 -3,4 C 90 % 1020 hPa 0,0 l/m NO 4,7 km/h (1 Bft)
06.01.2006 19:00 -3,6 C 91 % 1020 hPa 0,0 l/m NO 10,6 km/h (2 Bft)
06.01.2006 20:00 -3,7 C 93 % 1020 hPa 0,0 l/m NO 6,7 km/h (2 Bft)
06.01.2006 21:00 -3,9 C 94 % 1020 hPa 0,0 l/m NO 7,2 km/h (2 Bft)
06.01.2006 22:00 -4,0 C 95 % 1020 hPa 0,0 l/m NO 8,3 km/h (2 Bft)
06.01.2006 23:00 -4,2 C 96 % 1021 hPa 0,0 l/m NO 9,8 km/h (2 Bft)
07.01.2006 00:00 -4,2 C 97 % 1021 hPa 0,0 l/m NO 9,0 km/h (2 Bft)
07.01.2006 01:00 -4,2 C 97 % 1021 hPa 0,0 l/m NO 4,0 km/h (1 Bft)
07.01.2006 02:00 -4,3 C 97 % 1022 hPa 0,0 l/m NO 2,1 km/h (1 Bft)
07.01.2006 03:00 -4,5 C 97 % 1022 hPa 0,0 l/m NO 3,2 km/h (1 Bft)
07.01.2006 04:00 -4,7 C 96 % 1022 hPa 0,0 l/m NO 4,0 km/h (1 Bft)
07.01.2006 05:00 -5,1 C 97 % 1022 hPa 0,0 l/m NO 4,5 km/h (1 Bft)
07.01.2006 06:00 -5,4 C 97 % 1023 hPa 0,0 l/m NO 5,7 km/h (1 Bft)
07.01.2006 07:00 -5,9 C 96 % 1023 hPa 0,0 l/m NO 4,0 km/h (1 Bft)
07.01.2006 08:00 -6,0 C 96 % 1024 hPa 0,0 l/m NO 3,2 km/h (1 Bft)
07.01.2006 09:00 -6,0 C 96 % 1024 hPa 0,0 l/m NO 2,7 km/h (1 Bft)
07.01.2006 10:00 -5,7 C 96 % 1024 hPa 0,0 l/m NO 3,3 km/h (1 Bft)
07.01.2006 11:00 -5,1 C 94 % 1024 hPa 0,0 l/m NO 1,8 km/h (1 Bft)
07.01.2006 12:00 -4,6 C 87 % 1024 hPa 0,0 l/m NO 2,6 km/h (1 Bft)
07.01.2006 13:00 -4,4 C 82 % 1023 hPa 0,0 l/m NO 9,0 km/h (2 Bft)
07.01.2006 14:00 -4,7 C 83 % 1023 hPa 0,0 l/m NO 9,9 km/h (2 Bft)
07.01.2006 15:00 -4,7 C 86 % 1023 hPa 0,0 l/m NO 7,2 km/h (2 Bft)
07.01.2006 16:00 -4,9 C 90 % 1023 hPa 0,0 l/m NO 8,1 km/h (2 Bft)
07.01.2006 17:00 -4,7 C 92 % 1023 hPa 0,0 l/m NO 9,4 km/h (2 Bft)
07.01.2006 18:00 -4,7 C 94 % 1024 hPa 0,0 l/m NO 8,8 km/h (2 Bft)
07.01.2006 19:00 -4,5 C 96 % 1024 hPa 0,0 l/m NO 3,4 km/h (1 Bft)
07.01.2006 20:00 -4,3 C 96 % 1024 hPa 0,0 l/m NO 2,9 km/h (1 Bft)
07.01.2006 21:00 -4,1 C 96 % 1024 hPa 0,0 l/m NO 8,7 km/h (2 Bft)
07.01.2006 22:00 -4,1 C 95 % 1024 hPa 0,0 l/m N 10,4 km/h (2 Bft)
07.01.2006 23:00 -4,1 C 94 % 1023 hPa 0,0 l/m N 9,6 km/h (2 Bft)
08.01.2006 00:00 -4,2 C 94 % 1023 hPa 0,0 l/m N 4,6 km/h (1 Bft)
08.01.2006 01:00 -4,4 C 95 % 1023 hPa 0,0 l/m N 5,6 km/h (1 Bft)
08.01.2006 02:00 -4,6 C 95 % 1023 hPa 0,0 l/m N 8,0 km/h (2 Bft)
08.01.2006 03:00 -5,5 C 95 % 1023 hPa 0,0 l/m N 12,5 km/h (3 Bft)
08.01.2006 04:00 -6,5 C 94 % 1023 hPa 0,0 l/m N 8,2 km/h (2 Bft)
08.01.2006 05:00 -7,0 C 94 % 1024 hPa 0,0 l/m N 3,8 km/h (1 Bft)
08.01.2006 06:00 -7,1 C 95 % 1024 hPa 0,0 l/m N 0,4 km/h (0 Bft)
08.01.2006 07:00 -6,8 C 97 % 1025 hPa 0,0 l/m N 4,1 km/h (1 Bft)
08.01.2006 08:00 -6,5 C 99 % 1025 hPa 0,0 l/m N 4,1 km/h (1 Bft)
08.01.2006 09:00 -6,4 C 99 % 1026 hPa 0,0 l/m N 4,2 km/h (1 Bft)
08.01.2006 10:00 -6,2 C 99 % 1026 hPa 0,0 l/m N 1,7 km/h (1 Bft)
08.01.2006 11:00 -5,9 C 97 % 1026 hPa 0,0 l/m N 3,2 km/h (1 Bft)
08.01.2006 12:00 -5,4 C 94 % 1026 hPa 0,0 l/m N 1,1 km/h (1 Bft)
08.01.2006 13:00 -4,7 C 90 % 1025 hPa 0,0 l/m N 4,5 km/h (1 Bft)
08.01.2006 14:00 -4,3 C 86 % 1026 hPa 0,0 l/m N 7,1 km/h (2 Bft)
08.01.2006 15:00 -4,9 C 85 % 1026 hPa 0,0 l/m N 9,4 km/h (2 Bft)
08.01.2006 16:00 -5,4 C 87 % 1026 hPa 0,0 l/m N 6,8 km/h (2 Bft)
08.01.2006 17:00 -5,6 C 91 % 1026 hPa 0,0 l/m N 5,8 km/h (2 Bft)
08.01.2006 18:00 -5,7 C 93 % 1026 hPa 0,0 l/m N 6,2 km/h (2 Bft)
08.01.2006 19:00 -5,7 C 94 % 1027 hPa 0,0 l/m N 7,7 km/h (2 Bft)
08.01.2006 20:00 -5,5 C 96 % 1027 hPa 0,0 l/m N 7,5 km/h (2 Bft)
08.01.2006 21:00 -5,3 C 98 % 1027 hPa 0,0 l/m N 3,8 km/h (1 Bft)
08.01.2006 22:00 -5,4 C 98 % 1027 hPa 0,0 l/m N 5,9 km/h (2 Bft)
08.01.2006 23:00 -5,6 C 98 % 1027 hPa 0,0 l/m N 6,5 km/h (2 Bft)
Min-Datum _ 08.01.06 05.01.06 02.01.06 - - 02.01.06
_ Min-Zeit 05:38 14:21 00:00 - - 00:00
Minimum _ -7,1 C 62 % 1009 hPa - - 0,0 km/h (0 Bft)
Max-Datum _ 02.01.06 02.01.06 03.01.06 02.01.06 - 05.01.06
_ Max-Zeit 13:46 00:00 18:16 13:24 - 04:43
Maximum _ 1,9 C 100 % 1027 hPa 1,0 l/m - 37,8 km/h
NO (5 Bft)
Durchschnitt _ -2,3 C 88 % 1021 hPa #1,0 l/m NO 4,8 km/h (1 Bft)

Durchschnitt Minimum Temp.-2,4 C
Durchschnitt Maximum Temp.-2,1 C